Overview Statistics Trail Chart Weather Telemetry Raw packets
 

This is the latest recevied weather packets stored in our database for station/object K6POO-1. If no packets are shown the sender has not sent any weather packets the latest 10 day(s).

<< 55 56 57 58 59 60 61 >>
Time Temp. Humidity Pressure Rain* Wind** Luminosity Snow
1788305076 19.44° C 67% 1016.6 hPa 0 mm - 291 W/m² -
1788304771 20° C 66% 1016.4 hPa 0 mm - 462 W/m² -
1788304467 20° C 65% 1016.3 hPa 0 mm - 510 W/m² -
1788304164 20° C 64% 1016.4 hPa 0 mm - 497 W/m² -
1788303863 20° C 64% 1016.6 hPa 0 mm - 434 W/m² -
1788303559 20° C 64% 1016.6 hPa 0 mm - 541 W/m² -
1788303258 19.44° C 66% 1016.5 hPa 0 mm - 564 W/m² -
1788302953 20° C 65% 1016.5 hPa 0 mm - 565 W/m² -
1788302649 20° C 64% 1016.7 hPa 0 mm - 604 W/m² -
1788302346 20° C 65% 1016.6 hPa 0 mm - 627 W/m² -
1788302040 20° C 65% 1016.8 hPa 0 mm - 667 W/m² -
1788301736 20° C 63% 1016.6 hPa 0 mm - 702 W/m² -
1788301433 20.56° C 63% 1016.6 hPa 0 mm - 730 W/m² -
1788301128 21.11° C 60% 1016.4 hPa 0 mm - 728 W/m² -
1788300824 20.56° C 62% 1016.6 hPa 0 mm - 757 W/m² -
1788300523 20° C 61% 1016.5 hPa 0 mm - 802 W/m² -
1788300222 20° C 63% 1016.7 hPa 0 mm - 837 W/m² -
1788299921 20° C 61% 1016.3 hPa 0 mm - 191 W/m² -
1788299621 20° C 59% 1016.6 hPa 0 mm - 147 W/m² -
1788299319 20.56° C 57% 1016.5 hPa 0 mm - 815 W/m² -
1788299013 20° C 60% 1016.7 hPa 0 mm - 787 W/m² -
1788298708 20° C 58% 1016.6 hPa 0 mm - 806 W/m² -
1788298408 20° C 59% 1016.8 hPa 0 mm - 615 W/m² -
1788298108 20.56° C 56% 1016.7 hPa 0 mm - 137 W/m² -
1788297803 20° C 57% 1016.7 hPa 0 mm - 848 W/m² -

* Rain latest hour (hover to see other rain measurements)
** Current wind speed in m/s (hover to see current wind gust speed)